Regional Weather Roundup
Issued by NWS Cleveland, OH

Home | Current Version | Previous Version | Graphics & Text | Print | Product List | Glossary On
Versions: 1 2 3 4 5 6 7 8 9 10 11 12 13 14 15 16 17 18 19 20 21 22 23 24 25 26 27 28 29 30 31 32 33 34 35 36 37 38 39 40 41 42 43 44 45 46 47 48 49 50
000
ASUS41 KCLE 241710
RWRCLE
OHIO REGIONAL WEATHER ROUNDUP
NATIONAL WEATHER SERVICE CLEVELAND, OH
100 PM EDT THU APR 24 2014

NOTE: "FAIR" INDICATES FEW OR NO CLOUDS BELOW 12,000 FEET WITH NO
SIGNIFICANT WEATHER AND/OR OBSTRUCTIONS TO VISIBILITY.

OHZ001>008-015>018-024>027-034-035-043-044-241800-
   NORTHWEST OHIO

CITY           SKY/WX    TMP DP  RH WIND       PRES   REMARKS
DEFIANCE       PTSUNNY   56  19  23 SE10G22   30.09F
FINDLAY        PTSUNNY   55  19  24 E13       30.08F
TOLEDO EXPRESS CLOUDY    52  17  25 SE9G16    30.11F
TOLEDO EXEC    CLOUDY    54  20  26 E15       30.13F
LIMA           PTSUNNY   56  21  25 E12       30.07F
$$

OHZ009>014-019>023-028>033-038-089-241800-
   NORTHEAST OHIO

CITY           SKY/WX    TMP DP  RH WIND       PRES   REMARKS
CLE-HOPKINS    PTSUNNY   53  17  24 VRB5      30.17F
CLE-LAKEFRONT  MOSUNNY   46  32  58 NE13      30.14F
CUY CO. ARPT   MOSUNNY   52  27  37 N9        30.15F
LORAIN-ELYRIA  CLOUDY    54  16  22 E8        30.14F
ASHTABULA      SUNNY     51  18  27 NE8       30.15F
AKRON-CANTON   PTSUNNY   52  18  26 E7        30.13F
WOOSTER        LGT RAIN  52  22  30 VRB7      30.13F
MANSFIELD      SUNNY     51  20  29 E13G18    30.11F
YOUNGSTOWN     MOSUNNY   50  16  25 CALM      30.13F
$$

OHZ042-051>053-060>062-070>072-077>081-241800-
  SOUTHWEST OHIO

CITY           SKY/WX    TMP DP  RH WIND       PRES   REMARKS
CINC-COVINGTON PTSUNNY   59  28  30 E14       30.03F
CINC-LUNKEN    MOSUNNY   58  28  32 S8        30.06F
HAMILTON       SUNNY     60  25  26 E9        30.06F
DAYTON         PTSUNNY   58  21  24 SE14G22   30.06F
WRIGHT-PAT AFB MOSUNNY   58  19  22 E12       30.06F
DAYTON GENERAL MOSUNNY   57  21  24 E12       30.05F
WILMINGTON     PTSUNNY   56  16  20 E13       30.05F
$$

OHZ036-037-039>041-045>050-054>059-063>069-073>076-082>088-241800-
  CENTRAL AND SOUTHEAST OHIO

CITY           SKY/WX    TMP DP  RH WIND       PRES   REMARKS
COLUMBUS       PTSUNNY   59  15  18 SE12      30.08F
OSU AIRPORT    PTSUNNY   55  17  22 E12G18    30.08F
BOLTON FIELD   NOT AVBL
RICKENBACK AFB MOSUNNY   59   6  12 E13       30.07F
NEWARK         SUNNY     55  17  22 E12       30.09F
MARION         MOSUNNY   54  19  25 SE12      30.09F
LANCASTER      PTSUNNY   56  17  21 E13       30.08F
ZANESVILLE     SUNNY     54  19  25 SE8       30.11F
NEW PHILLY     SUNNY     53  18  25 VRB6      30.14F
$$



USA.gov is the U.S. government's official web portal to all federal, state and local government web resources and services.